OpenBCM V1.08-5-g2f4a (Linux)

Packet Radio Mailbox

IZ3LSV

[San Dona' di P. JN]

 Login: GUEST





  
CX2SA  > KEP      30.12.11 23:36l 86 Lines 3576 Bytes #999 (0) @ ARL
BID : ARLK102
Read: GUEST
Subj: ARLK102 Keplerian data
Path: IZ3LSV<I0OJJ<GB7CIP<CX2SA
Sent: 111230/2154Z @:CX2SA.SAL.URY.SA #:45265 [Salto] FBB7.00e $:ARLK102
From: CX2SA@CX2SA.SAL.URY.SA
To  : KEP@ARL


ZCZC SK03
QST de W1AW
Keplerian Bulletin 102  ARLK102
From ARRL Headquarters
Newington, CT  December 30, 2011
To all radio amateurs

SB KEP ARL ARLK102
ARLK102 Keplerian data

Special thanks to AMSAT-NA (AMSAT.ORG) for the following Keplerian
data.

Decode 2-line elsets with the following key:
1 AAAAAU 00  0  0 BBBBB.BBBBBBBB  .CCCCCCCC  00000-0  00000-0 0  DDDZ
2 AAAAA EEE.EEEE FFF.FFFF GGGGGGG HHH.HHHH III.IIII JJ.JJJJJJJJKKKKKZ
KEY: A-CATALOGNUM B-EPOCHTIME C-DECAY D-ELSETNUM E-INCLINATION F-RAAN
G-ECCENTRICITY H-ARGPERIGEE I-MNANOM J-MNMOTION K-ORBITNUM Z-CHECKSUM

AO-07
1 07530U 74089B   11363.91991433 -.00000027 +00000-0 +10000-3 0 02702
2 07530 101.3969 002.7559 0011812 256.7727 103.2026 12.53586775698717
AO-16
1 20439U 90005D   11363.88147649 +.00000158 +00000-0 +74866-4 0 03659
2 20439 098.4103 307.2100 0010420 307.9377 052.0861 14.32001177145627
AO-27
1 22825U 93061C   11364.50228011  .00000267  00000-0  12150-3 0  9966
2 22825 098.5564 305.1342 0009153 061.7642 298.4467 14.29416618952233
GO-32
1 25397U 98043D   11363.84698034  .00000081  00000-0  53923-4 0  6651
2 25397 098.3444 346.1207 0002195 074.1535 285.9886 14.23249199699795
ISS
1 25544U 98067A   11364.75244067  .00014593  00000-0  18941-3 0  7255
2 25544 051.6439 252.1047 0024136 223.6990 203.6677 15.58758678751596
NO-44
1 26931U 01043C   11363.84792738  .00000250  00000-0  12933-3 0  9326
2 26931 067.0487 199.3388 0005182 277.8256 082.2256 14.29743814534896
SO-50
1 27607U 02058C   11363.47219103 +.00000994 +00000-0 +17070-3 0 06524
2 27607 064.5598 094.1181 0084380 281.5149 077.6468 14.72126769484838
CO-55
1 27844U 03031E   11363.45047712 +.00000332 +00000-0 +17336-3 0 02765
2 27844 098.7045 009.3135 0010106 359.5564 000.5609 14.20936047440640
RS-22
1 27939U 03042A   11364.48996040  .00000676  00000-0  13778-3 0  9453
2 27939 097.8231 208.8790 0014529 083.5935 276.6939 14.63848210441053
AO-51
1 28375U 04025K   11363.88037934 +.00000321 +00000-0 +10907-3 0 01563
2 28375 098.1228 332.3124 0082857 196.4955 163.3423 14.40878407394241
VO-52
1 28650U 05017B   11364.26807952  .00001499  00000-0  19162-3 0  9869
2 28650 097.6183 038.3988 0025567 238.1732 121.7085 14.82575445359799
CO-58
1 28895U 05043F   11363.15270686 +.00000863 +00000-0 +18722-3 0 00613
2 28895 097.9386 231.7076 0017478 332.1436 027.8813 14.60416831328692
CO-65
1 32785U 08021C   11363.64934109 +.00001111 +00000-0 +14450-3 0 01900
2 32785 097.8256 063.5821 0013678 258.9396 101.0277 14.82566378198495
COMPASS 1
1 32787U 08021E   11363.71070346 +.00001989 +00000-0 +24894-3 0 01843
2 32787 097.8255 063.7052 0014291 257.9801 101.9812 14.83322952198534
DO-64
1 32789U 08021G   11363.90564748 +.00004035 +00000-0 +48299-3 0 01929
2 32789 097.8351 065.6412 0014186 254.7772 105.1856 14.84617233198601
RS-30
1 32953U 08025A   11364.21801987  .00000010  00000-0  00000+0 0  3880
2 32953 082.5015 040.8377 0017966 322.4937 037.4893 12.43019125163443
KKS-1
1 33499U 09002H   11364.31001753  .00001152  00000-0  19388-3 0  6206
2 33499 098.0994 114.9433 0009190 252.1107 107.9095 14.71439489157443
SO-67
1 35870U 09049F   11364.49227698  .00004499  00000-0  19754-3 0  5415
2 35870 097.2558 041.1672 0003668 062.0147 075.3994 15.22418290126780
HO-68
1 36122U 09072B   11364.33872003 -.00000044  00000-0  00000+0 0   587
2 36122 100.3896 061.9440 0007631 135.6685 224.5040 13.16292044 98048

Keplerian bulletins are transmitted twice weekly from W1AW.  The
next scheduled transmission of these data will be Tuesday, January 3,
2012, at 2330z on Baudot and BPSK31.
NNNN


Read previous mail | Read next mail


 15.12.2025 09:21:41lGo back Go up